Weather History for KFSE - November, 2011

Change the Weather History Date:

Thursday, November 17, 2011

  Actual Average Record
Temperature  
Mean Temperature 10 °F -  
Max Temperature 21 °F 33 °F 69 °F (1953)
Min Temperature 0 °F 20 °F -12 °F (1959)
Degree Days  
Heating Degree Days 54    
Moisture  
Dew Point 7 °F    
Average Humidity 79    
Maximum Humidity 92    
Minimum Humidity 58    
Precipitation  
Precipitation 0.00 in - - ()
Sea Level Pressure  
Sea Level Pressure 30.02 in    
Wind  
Wind Speed 5 mph (SSW)    
Max Wind Speed 9 mph    
Max Gust Speed -    
Visibility 9 miles    
Events Snow    
Averages and records for this station are not official NWS values.
T = Trace of Precipitation, MM = Missing Value Source: NWS Daily Summary

Daily Weather History Graph

Daily Weather History Graph

Search for Another Location

Airport or City:

Trip Planner

Search our weather history database for the weather conditions in past years. The results will help you decide how hot, cold, wet, or windy it might be!

Date:

Astronomy

Nov. 17, 2011 Rise Set
Actual Time 7:30 AM CST 4:44 PM CST
Civil Twilight 6:57 AM CST 5:18 PM CST
Nautical Twilight 6:19 AM CST 5:56 PM CST
Astronomical Twilight 5:43 AM CST 6:32 PM CST
Moon 11:15 PM CST (11/17) 12:32 PM CST (11/17)
Length of Visible Light 10h 21m
Length of Day
9h 13m
Waning Gibbous, 59% of the Moon is Illuminated
Nov 17
Waning Gibbous
Nov 18
Last Quarter
Nov 25
New
Dec 2
First Quarter
Dec 10
Full

Hourly Weather History & Observations

Time (CST) Temp. Windchill Dew Point Humidity Pressure Visibility Wind Dir Wind Speed Gust Speed Precip Events Conditions
12:15 AM 10.4 °F -0.4 °F 8.6 °F 92% 30.06 in 10.0 mi West 6.9 mph - N/A   Mostly Cloudy
12:36 AM 10.4 °F 0.8 °F 6.8 °F 85% 30.06 in 10.0 mi WSW 5.8 mph - N/A   Clear
12:55 AM 8.6 °F 0.1 °F 6.8 °F 92% 30.07 in 10.0 mi SSW 4.6 mph - N/A Snow Light Snow
1:15 AM 8.6 °F 0.1 °F 6.8 °F 92% 30.07 in 10.0 mi WSW 4.6 mph - N/A Snow Light Snow
1:34 AM 10.4 °F 4.0 °F 8.6 °F 92% 30.07 in 7.0 mi SW 3.5 mph - N/A Snow Light Snow
1:55 AM 10.4 °F 2.2 °F 8.6 °F 92% 30.07 in 5.0 mi West 4.6 mph - N/A Snow Light Snow
2:15 AM 10.4 °F 0.8 °F 8.6 °F 92% 30.08 in 7.0 mi WSW 5.8 mph - N/A Snow Light Snow
2:35 AM 10.4 °F -0.4 °F 8.6 °F 92% 30.08 in 10.0 mi West 6.9 mph - N/A Snow Light Snow
2:55 AM 10.4 °F -0.4 °F 8.6 °F 92% 30.08 in 10.0 mi West 6.9 mph - N/A Snow Light Snow
3:15 AM 12.2 °F 0.7 °F 8.6 °F 85% 30.08 in 10.0 mi West 8.1 mph - N/A Snow Light Snow
3:35 AM 12.2 °F -0.2 °F 8.6 °F 85% 30.08 in 10.0 mi West 9.2 mph - N/A   Overcast
4:15 AM 12.2 °F 1.7 °F 8.6 °F 85% 30.08 in 10.0 mi West 6.9 mph - N/A   Overcast
4:35 AM 10.4 °F 2.2 °F 6.8 °F 85% 30.07 in 10.0 mi West 4.6 mph - N/A   Overcast
4:55 AM 8.6 °F 2.0 °F 6.8 °F 92% 30.07 in 10.0 mi West 3.5 mph - N/A   Mostly Cloudy
5:15 AM 8.6 °F 2.0 °F 5.0 °F 85% 30.08 in 10.0 mi WSW 3.5 mph - N/A   Mostly Cloudy
5:35 AM 6.8 °F -2.0 °F 5.0 °F 92% 30.08 in 10.0 mi WSW 4.6 mph - N/A   Mostly Cloudy
6:15 AM 3.2 °F -7.8 °F 1.4 °F 92% 30.08 in 10.0 mi WSW 5.8 mph - N/A   Clear
6:35 AM 3.2 °F -4.2 °F -0.4 °F 85% 30.08 in 10.0 mi SW 3.5 mph - N/A   Clear
6:55 AM 1.4 °F -6.2 °F -2.2 °F 85% 30.08 in 10.0 mi SSW 3.5 mph - N/A   Clear
7:15 AM -0.4 °F -10.4 °F -4.0 °F 85% 30.08 in 10.0 mi SSW 4.6 mph - N/A   Clear
7:35 AM -0.4 °F - -2.2 °F 92% 30.08 in 4.0 mi Calm Calm - N/A Snow Light Snow
7:55 AM -0.4 °F - -4.0 °F 85% 30.08 in 10.0 mi Calm Calm - N/A Snow Light Snow
8:15 AM -0.4 °F - -2.2 °F 92% 30.08 in 10.0 mi Calm Calm - N/A Snow Light Snow
8:35 AM 1.4 °F - -0.4 °F 92% 30.08 in 10.0 mi Calm Calm - N/A   Clear
8:55 AM 3.2 °F -7.8 °F 1.4 °F 92% 30.09 in 10.0 mi SSW 5.8 mph - N/A   Clear
9:15 AM 6.8 °F -4.8 °F 3.2 °F 85% 30.09 in 7.0 mi SSW 6.9 mph - N/A   Clear
9:35 AM 8.6 °F -1.3 °F 3.2 °F 79% 30.09 in 3.0 mi SSW 5.8 mph - N/A Snow Light Snow
9:55 AM 10.4 °F 2.2 °F 3.2 °F 73% 30.09 in 4.0 mi SSW 4.6 mph - N/A Snow Light Snow
10:16 AM 10.4 °F 2.2 °F 5.0 °F 79% 30.09 in 1.5 mi South 4.6 mph - N/A Snow Light Snow
10:35 AM 12.2 °F 4.3 °F 6.8 °F 79% 30.08 in 4.0 mi South 4.6 mph - N/A Snow Light Snow
10:55 AM 14.0 °F - 6.8 °F 73% 30.07 in 10.0 mi Calm Calm - N/A Snow Light Snow
11:16 AM 15.8 °F 8.6 °F 6.8 °F 68% 30.06 in 10.0 mi SSW 4.6 mph - N/A   Clear
11:35 AM 15.8 °F 8.6 °F 6.8 °F 68% 30.06 in 10.0 mi SSW 4.6 mph - N/A   Clear
11:55 AM 17.6 °F 9.3 °F 8.6 °F 68% 30.05 in 10.0 mi SSW 5.8 mph - N/A   Clear
12:16 PM 19.4 °F 12.8 °F 8.6 °F 63% 30.04 in 10.0 mi South 4.6 mph - N/A   Clear
12:35 PM 17.6 °F 12.3 °F 8.6 °F 68% 30.02 in 10.0 mi South 3.5 mph - N/A   Clear
12:56 PM 17.6 °F 10.7 °F 8.6 °F 68% 30.02 in 10.0 mi SSW 4.6 mph - N/A   Clear
1:15 PM 19.4 °F 12.8 °F 10.4 °F 68% 30.01 in 10.0 mi SSW 4.6 mph - N/A   Clear
1:35 PM 21.2 °F 14.9 °F 8.6 °F 58% 30.01 in 10.0 mi SSW 4.6 mph - N/A   Clear
2:15 PM 19.4 °F 12.8 °F 8.6 °F 63% 29.99 in 10.0 mi SSW 4.6 mph - N/A   Clear
2:35 PM 17.6 °F 9.3 °F 10.4 °F 73% 29.99 in 10.0 mi South 5.8 mph - N/A   Clear
2:55 PM 17.6 °F 9.3 °F 10.4 °F 73% 29.99 in 10.0 mi SSW 5.8 mph - N/A   Clear
3:15 PM 19.4 °F 11.5 °F 10.4 °F 68% 29.98 in 10.0 mi South 5.8 mph - N/A   Clear
3:35 PM 19.4 °F 11.5 °F 10.4 °F 68% 29.97 in 10.0 mi SSE 5.8 mph - N/A   Clear
3:55 PM 17.6 °F - 10.4 °F 73% 29.95 in 10.0 mi Calm Calm - N/A   Clear
4:15 PM 17.6 °F 12.3 °F 10.4 °F 73% 29.94 in 10.0 mi SE 3.5 mph - N/A   Clear
4:35 PM 17.6 °F - 10.4 °F 73% 29.93 in 10.0 mi Calm Calm - N/A   Clear
4:55 PM 17.6 °F - 10.4 °F 73% 29.93 in 10.0 mi Calm Calm - N/A   Clear
5:15 PM 17.6 °F - 10.4 °F 73% 29.92 in 10.0 mi Calm Calm - N/A   Scattered Clouds
5:35 PM 15.8 °F 10.2 °F 10.4 °F 79% 29.91 in 10.0 mi East 3.5 mph - N/A   Mostly Cloudy
5:55 PM 15.8 °F 7.2 °F 10.4 °F 79% 29.90 in 10.0 mi East 5.8 mph - N/A   Overcast
6:15 PM 17.6 °F 9.3 °F 12.2 °F 79% 29.89 in 10.0 mi East 5.8 mph - N/A   Overcast
6:35 PM 17.6 °F 8.2 °F 12.2 °F 79% 29.87 in 10.0 mi East 6.9 mph - N/A   Overcast
6:55 PM 17.6 °F 8.2 °F 12.2 °F 79% 29.86 in 10.0 mi East 6.9 mph - N/A   Mostly Cloudy
7:35 PM 19.4 °F 10.4 °F 12.2 °F 74% 29.85 in 10.0 mi SE 6.9 mph - N/A   Overcast
7:55 PM 19.4 °F 8.6 °F 12.2 °F 74% 29.85 in 10.0 mi SE 9.2 mph - N/A   Overcast
8:15 PM 21.2 °F 12.6 °F 14.0 °F 74% 29.86 in 10.0 mi SE 6.9 mph - N/A   Overcast
8:35 PM 21.2 °F 12.6 °F 12.2 °F 68% 29.84 in 10.0 mi ESE 6.9 mph - N/A   Overcast
8:55 PM 21.2 °F 10.9 °F 12.2 °F 68% 29.82 in 10.0 mi ESE 9.2 mph - N/A   Overcast
9:16 PM 21.2 °F 10.9 °F 12.2 °F 68% 29.79 in 10.0 mi ESE 9.2 mph - N/A   Overcast
9:35 PM 21.2 °F 10.9 °F 12.2 °F 68% 29.81 in 10.0 mi SE 9.2 mph - N/A   Overcast
9:55 PM 21.2 °F 10.1 °F 12.2 °F 68% 29.78 in 10.0 mi ESE 10.4 mph - N/A   Overcast
10:35 PM 21.2 °F 8.9 °F 12.2 °F 68% 29.72 in 10.0 mi ESE 12.7 mph 18.4 mph N/A   Scattered Clouds
10:55 PM 21.2 °F 9.5 °F 12.2 °F 68% 29.71 in 10.0 mi ESE 11.5 mph 18.4 mph N/A   Mostly Cloudy
11:15 PM 21.2 °F 10.1 °F 12.2 °F 68% 29.73 in 10.0 mi East 10.4 mph - N/A   Overcast
11:35 PM 21.2 °F 10.9 °F 12.2 °F 68% 29.71 in 10.0 mi East 9.2 mph - N/A   Overcast
11:55 PM 21.2 °F 10.1 °F 12.2 °F 68% 29.71 in 10.0 mi East 10.4 mph - N/A   Overcast